Location: Asheville, NC
(35.6000°N, 82.5500°W)
Time: 16:58:27
(UTC-05:00)

Envisat - Pass Details

Date: 16 February 2018
Orbit: 764 x 766 km, 98.2° (Epoch: 18 February)

Event Time Altitude Azimuth Distance (km) Brightness Sun altitude
Rises 18:38:35 0° 117° (ESE) 3,219 5.7 -5.9°
Reaches altitude 10° 18:42:09 10° 90° (E) 2,297 4.8 -6.6°
Maximum altitude 18:44:23 13° 64° (ENE) 2,094 4.7 -7.0°
Drops below altitude 10° 18:46:38 10° 37° (NE) 2,302 5.1 -7.5°
Sets 18:50:12 0° 11° (N) 3,233 6.0 -8.2°
